• In Russia
  • List of Countries
  • For 7 days
  • Water Temperature
  • Satellite Maps
  • Weather Map
  • Weather Widgets
  • user-avatar
    Login

    Hourly Weather Makeni

    Today, 21 September, Friday

    Time Temperature Precipitation Wind Pressure Humidity
    00:00 +23°C° 0 mm 0 mps 750 mmHg 97%
    01:00 +23°C° 0 mm 0 mps 750 mmHg 97%
    02:00 +23°C° 0 mm 0 mps 750 mmHg 97%
    03:00 +23°C° 0.1 mm 0 mps 750 mmHg 98%
    04:00 +25°C° 0.1 mm 1 mps 750 mmHg 98%
    05:00 +25°C° 0 mm 1 mps 750 mmHg 98%
    06:00 +26°C° 0.2 mm 1 mps 750 mmHg 96%
    07:00 +26°C° 0.2 mm 1 mps 751 mmHg 94%
    08:00 +27°C° 0.2 mm 2 mps 751 mmHg 91%
    09:00 +29°C° 0.1 mm 2 mps 751 mmHg 83%
    10:00 +31°C° 0.1 mm 2 mps 751 mmHg 74%
    11:00 +32°C° 0.1 mm 2 mps 750 mmHg 66%
    12:00 +32°C° 1.2 mm 2 mps 750 mmHg 72%
    13:00 +31°C° 1.2 mm 2 mps 749 mmHg 78%
    14:00 +31°C° 1.2 mm 2 mps 749 mmHg 83%
    15:00 +30°C° 1.3 mm 2 mps 749 mmHg 87%
    16:00 +29°C° 1.3 mm 1 mps 749 mmHg 90%
    17:00 +28°C° 1.3 mm 1 mps 749 mmHg 94%
    18:00 +27°C° 0.3 mm 1 mps 750 mmHg 95%
    19:00 +26°C° 0.3 mm 1 mps 750 mmHg 96%
    20:00 +26°C° 0.3 mm 1 mps 751 mmHg 97%
    21:00 +25°C° 0 mm 1 mps 751 mmHg 97%
    22:00 +25°C° 0 mm 1 mps 751 mmHg 98%
    23:00 +25°C° 0 mm 1 mps 751 mmHg 98%

    Tomorrow, 22 September, Saturday

    Time Temperature Precipitation Wind Pressure Humidity
    00:00 +23°C° 0.1 mm 0 mps 751 mmHg 98%
    01:00 +23°C° 0.1 mm 0 mps 751 mmHg 98%
    02:00 +22°C° 0.1 mm 0 mps 751 mmHg 98%
    03:00 +22°C° 0 mm 0 mps 751 mmHg 98%
    04:00 +22°C° 0 mm 0 mps 751 mmHg 98%
    05:00 +22°C° 0 mm 0 mps 751 mmHg 98%
    06:00 +23°C° 0 mm 0 mps 751 mmHg 95%
    07:00 +24°C° 0 mm 0 mps 752 mmHg 92%
    08:00 +26°C° 0 mm 0 mps 752 mmHg 89%
    09:00 +27°C° 0 mm 0 mps 752 mmHg 80%
    10:00 +31°C° 0 mm 1 mps 752 mmHg 71%
    11:00 +33°C° 0 mm 1 mps 751 mmHg 62%
    12:00 +32°C° 0.8 mm 1 mps 751 mmHg 69%
    13:00 +32°C° 0.8 mm 1 mps 750 mmHg 75%
    14:00 +31°C° 0.8 mm 2 mps 749 mmHg 82%
    15:00 +30°C° 1.8 mm 1 mps 749 mmHg 86%
    16:00 +29°C° 1.8 mm 1 mps 749 mmHg 90%
    17:00 +28°C° 1.8 mm 1 mps 749 mmHg 94%
    18:00 +27°C° 1.5 mm 1 mps 750 mmHg 95%
    19:00 +26°C° 1.5 mm 1 mps 751 mmHg 96%
    20:00 +26°C° 1.5 mm 1 mps 752 mmHg 96%
    21:00 +25°C° 0.8 mm 1 mps 752 mmHg 97%
    22:00 +25°C° 0.8 mm 1 mps 752 mmHg 97%
    23:00 +23°C° 0.8 mm 0 mps 752 mmHg 97%

    Day after tomorrow, 23 September, Sunday

    Time Temperature Precipitation Wind Pressure Humidity
    00:00 +23°C° 0.1 mm 0 mps 752 mmHg 98%
    01:00 +23°C° 0.1 mm 0 mps 751 mmHg 98%
    02:00 +23°C° 0.1 mm 0 mps 751 mmHg 98%
    03:00 +23°C° 0 mm 0 mps 751 mmHg 98%
    04:00 +23°C° 0 mm 0 mps 751 mmHg 98%
    05:00 +23°C° 0 mm 0 mps 751 mmHg 99%
    06:00 +24°C° 0 mm 0 mps 751 mmHg 96%
    07:00 +24°C° 0 mm 0 mps 752 mmHg 94%
    08:00 +25°C° 0 mm 0 mps 752 mmHg 92%
    09:00 +27°C° 0 mm 0 mps 752 mmHg 85%
    10:00 +28°C° 0 mm 0 mps 752 mmHg 77%
    11:00 +32°C° 0 mm 1 mps 752 mmHg 70%
    12:00 +32°C° 0.6 mm 1 mps 751 mmHg 73%
    13:00 +31°C° 0.6 mm 1 mps 751 mmHg 76%
    14:00 +31°C° 0.6 mm 1 mps 750 mmHg 79%
    15:00 +30°C° 1.7 mm 1 mps 750 mmHg 84%
    16:00 +29°C° 1.7 mm 1 mps 750 mmHg 89%
    17:00 +28°C° 1.7 mm 1 mps 750 mmHg 94%
    18:00 +27°C° 0.2 mm 1 mps 750 mmHg 95%
    19:00 +27°C° 0.2 mm 1 mps 751 mmHg 96%
    20:00 +26°C° 0.2 mm 1 mps 752 mmHg 97%
    21:00 +26°C° 0.1 mm 1 mps 752 mmHg 97%
    22:00 +26°C° 0.1 mm 1 mps 752 mmHg 98%
    23:00 +23°C° 0.1 mm 0 mps 752 mmHg 98%

    24 September, Monday

    Time Temperature Precipitation Wind Pressure Humidity
    00:00 +23°C° 0 mm 0 mps 751 mmHg 98%
    01:00 +23°C° 0 mm 0 mps 751 mmHg 98%
    02:00 +23°C° 0 mm 0 mps 750 mmHg 99%
    03:00 +23°C° 0 mm 0 mps 750 mmHg 99%
    04:00 +23°C° 0 mm 0 mps 750 mmHg 99%
    05:00 +23°C° 0 mm 0 mps 750 mmHg 99%
    06:00 +24°C° 0 mm 0 mps 751 mmHg 96%
    07:00 +25°C° 0 mm 0 mps 752 mmHg 93%
    08:00 +26°C° 0 mm 0 mps 752 mmHg 90%
    09:00 +26°C° 0.8 mm 0 mps 752 mmHg 88%
    10:00 +29°C° 0.8 mm 1 mps 752 mmHg 86%
    11:00 +30°C° 0.8 mm 1 mps 751 mmHg 84%
    12:00 +31°C° 0.7 mm 1 mps 751 mmHg 80%
    13:00 +31°C° 0.7 mm 1 mps 750 mmHg 75%
    14:00 +32°C° 0.7 mm 1 mps 749 mmHg 70%
    15:00 +31°C° 1.5 mm 1 mps 749 mmHg 77%
    16:00 +29°C° 1.5 mm 1 mps 749 mmHg 84%
    17:00 +28°C° 1.5 mm 1 mps 749 mmHg 91%
    18:00 +27°C° 1.2 mm 1 mps 750 mmHg 92%
    19:00 +27°C° 1.2 mm 1 mps 750 mmHg 93%
    20:00 +26°C° 1.2 mm 1 mps 751 mmHg 94%
    21:00 +25°C° 0.4 mm 1 mps 751 mmHg 95%
    22:00 +25°C° 0.4 mm 1 mps 751 mmHg 96%
    23:00 +25°C° 0.4 mm 1 mps 752 mmHg 96%

    25 September, Tuesday

    Time Temperature Precipitation Wind Pressure Humidity
    00:00 +23°C° 0.8 mm 0 mps 751 mmHg 97%
    01:00 +23°C° 0.8 mm 0 mps 751 mmHg 97%
    02:00 +23°C° 0.8 mm 0 mps 750 mmHg 98%
    03:00 +23°C° 0.9 mm 0 mps 750 mmHg 98%
    04:00 +23°C° 0.9 mm 0 mps 751 mmHg 98%
    05:00 +23°C° 0.9 mm 0 mps 751 mmHg 98%
    06:00 +23°C° 0.3 mm 0 mps 751 mmHg 96%
    07:00 +24°C° 0.3 mm 0 mps 752 mmHg 94%
    08:00 +25°C° 0.3 mm 0 mps 752 mmHg 92%
    09:00 +29°C° 0 mm 1 mps 752 mmHg 84%
    10:00 +30°C° 0 mm 1 mps 752 mmHg 75%
    11:00 +32°C° 0 mm 1 mps 752 mmHg 67%
    12:00 +32°C° 0.3 mm 1 mps 751 mmHg 68%
    13:00 +32°C° 0.3 mm 1 mps 750 mmHg 69%
    14:00 +32°C° 0.3 mm 1 mps 749 mmHg 70%
    15:00 +31°C° 1.6 mm 1 mps 749 mmHg 77%
    16:00 +30°C° 1.6 mm 1 mps 750 mmHg 84%
    17:00 +29°C° 1.6 mm 1 mps 750 mmHg 91%
    18:00 +26°C° 1.8 mm 0 mps 751 mmHg 92%
    19:00 +25°C° 1.8 mm 0 mps 751 mmHg 94%
    20:00 +24°C° 1.8 mm 0 mps 752 mmHg 95%
    21:00 +24°C° 0.1 mm 0 mps 752 mmHg 96%
    22:00 +24°C° 0.1 mm 0 mps 752 mmHg 96%
    23:00 +23°C° 0.1 mm 0 mps 752 mmHg 97%

    26 September, Wednesday

    Time Temperature Precipitation Wind Pressure Humidity
    00:00 +23°C° 0 mm 0 mps 751 mmHg 97%
    01:00 +23°C° 0 mm 0 mps 751 mmHg 98%
    02:00 +23°C° 0 mm 0 mps 750 mmHg 98%
    03:00 +23°C° 0 mm 0 mps 751 mmHg 98%
    04:00 +23°C° 0 mm 0 mps 751 mmHg 98%
    05:00 +23°C° 0 mm 0 mps 751 mmHg 98%
    06:00 +24°C° 0 mm 0 mps 751 mmHg 96%
    07:00 +25°C° 0 mm 0 mps 752 mmHg 93%
    08:00 +26°C° 0 mm 0 mps 752 mmHg 91%
    09:00 +27°C° 0 mm 0 mps 751 mmHg 84%
    10:00 +31°C° 0 mm 1 mps 751 mmHg 76%
    11:00 +32°C° 0 mm 1 mps 751 mmHg 69%
    12:00 +32°C° 0.8 mm 1 mps 750 mmHg 72%
    13:00 +32°C° 0.8 mm 1 mps 749 mmHg 74%
    14:00 +32°C° 0.8 mm 1 mps 749 mmHg 77%
    15:00 +30°C° 1.7 mm 1 mps 749 mmHg 82%
    16:00 +29°C° 1.7 mm 1 mps 749 mmHg 88%
    17:00 +28°C° 1.7 mm 1 mps 749 mmHg 94%
    18:00 +27°C° 0.6 mm 1 mps 750 mmHg 94%
    19:00 +27°C° 0.6 mm 1 mps 750 mmHg 95%
    20:00 +24°C° 0.6 mm 0 mps 751 mmHg 96%
    21:00 +24°C° 0.4 mm 0 mps 751 mmHg 96%
    22:00 +24°C° 0.4 mm 0 mps 751 mmHg 96%
    23:00 +24°C° 0.4 mm 0 mps 751 mmHg 97%
    Show more